Volver al catálogo

AYAME 2 DEB

ActivoHEO
NORAD 38684·DEBRIS·🇯🇵 Japan

Lanzado Feb 22, 1980 desde Tanegashima Space Center

Loading…

Próximos Pases (próximas 24 horas)

TLE

ActualizadoSource: Space-Track

Época: Sep 13, 2026, 17:30 UTC

1 38684U 80018E   26256.72961516 -.00000133  00000-0  00000-0 0  9992
2 38684  10.0701 338.9525 4482674  59.0731 337.3113  1.77316338 28397

Sigue AYAME 2 DEB en tiempo real con AllMySat

Download on the App Store